This demonstration page uses our WeatherBlox Daily Observations layout. Learn more.

Left ArrowRight Arrow

39.01783, -85.05884

Hourly Observations for March 3, 2020

Temp ( °F °C ) Dew Point ( °F °C ) Humidity (%) Winds ( mph kmh ) Pressure ( in mb ) Visibility ( mi km ) Precip ( " mm )
12:30 am 00:30 Cloudy 52 11.1 50 10 93 93 S 10 17 29.68 1005 10 16 0.00 0.00
12:41 am 00:41 Cloudy 53 11.7 50 10 89 89 S 9 15 29.66 1005 10 16 0.00 0.00
12:52 am 00:52 Cloudy 53 11.7 51 10.6 93 93 S 14 22 29.65 1004 10 16 0.00 0.00
1:52 am 01:52 Cloudy 54 12.2 51 10.6 90 90 S 12 19 29.61 1003 10 16 0.00 0.00
2:22 am 02:22 Cloudy with Thunderstorms 54 12.2 51 10.6 90 90 S 12 19 29.61 1003 9 14 0.00 0.00
2:40 am 02:40 Cloudy with Strong Thunderstorms 54 12.2 51 10.6 90 90 SSW 13 20 29.63 1003 3 4 0.02 0.51
2:52 am 02:52 Cloudy with Strong Thunderstorms 54 12.2 52 11.1 93 93 S 9 15 29.61 1003 3 4 0.12 3.05
3:14 am 03:14 Cloudy with Thunderstorms 54 12.2 52 11.1 93 93 SW 7 11 29.61 1003 3 4 0.11 2.79
3:22 am 03:22 Cloudy with Thunderstorms 54 12.2 51 10.6 90 90 SSW 7 11 29.62 1003 3 5 0.14 3.56
3:37 am 03:37 Cloudy with Heavy Rain 54 12.2 51 10.6 90 90 S 12 19 29.59 1002 3 5 0.21 5.33
3:46 am 03:46 Cloudy with Light Rain 54 12 52 11 94 94 S 10 17 29.60 1002 7 11 0.24 6.10
3:52 am 03:52 Cloudy 53 11.7 51 10.6 93 93 SSW 8 13 29.58 1002 9 14 0.24 6.10
4:19 am 04:19 Cloudy 53 11.7 51 10.6 93 93 SSW 7 11 29.59 1002 10 16 0.00 0.00
4:36 am 04:36 Cloudy 53 11.7 50 10 89 89 SSW 7 11 29.59 1002 10 16 0.00 0.00
4:52 am 04:52 Cloudy 52 11.1 50 10 93 93 SSW 6 9 29.58 1002 10 16 0.00 0.00
5:06 am 05:06 Cloudy 52 11.1 50 10 93 93 SW 7 11 29.61 1003 10 16 0.00 0.00
5:43 am 05:43 Cloudy 53 11.7 50 10 89 89 SW 7 11 29.61 1003 10 16 0.00 0.00
5:52 am 05:52 Cloudy 53 11.7 50 10 89 89 SW 7 11 29.59 1002 10 16 0.00 0.00
6:12 am 06:12 Cloudy with Light Rain 52 11.1 50 10 93 93 SSE 8 13 29.58 1002 10 16 0.00 0.00
6:52 am 06:52 Mostly Cloudy 51 10.6 49 9.4 92 92 S 12 19 29.57 1001 10 16 0.00 0.00
7:01 am 07:01 Mostly Cloudy 51 10.6 49 9.4 92 92 S 12 19 29.59 1002 10 16 0.00 0.00
7:52 am 07:52 Cloudy 52 11.1 49 9.4 89 89 SW 10 17 29.60 1002 8 13 0.00 0.00
8:52 am 08:52 Cloudy with Light Rain 52 11.1 48 8.9 86 86 SSW 10 17 29.60 1003 7 11 0.00 0.00
9:05 am 09:05 Cloudy with Heavy Rain 51 10.6 48 8.9 89 89 SSW 9 15 29.62 1003 2 3 0.01 0.25
9:24 am 09:24 Cloudy with Light Rain 51 10.6 49 9.4 92 92 SSW 12 19 29.62 1003 6 10 0.03 0.76
9:52 am 09:52 Cloudy with Light Rain 51 10.6 49 9.4 92 92 SW 10 17 29.59 1002 7 11 0.03 0.76
10:52 am 10:52 Cloudy with Mist and Fog 52 11.1 49 9.4 89 89 SW 10 17 29.59 1002 6 10 0.01 0.25
11:09 am 11:09 Cloudy with Light Rain 50 10 46 7.8 86 86 WNW 18 30 29.62 1003 6 10 0.00 0.00
11:52 am 11:52 Cloudy 48 8.9 44 6.7 86 86 WNW 14 22 29.63 1004 7 11 0.00 0.00
12:22 pm 12:22 Partly Cloudy 51 10.6 44 6.7 77 77 W 16 26 29.65 1004 9 14 0.00 0.00
12:52 pm 12:52 Mostly Sunny 53 11.7 42 5.6 66 66 W 23 37 29.64 1004 10 16 0.00 0.00
1:52 pm 13:52 Mostly Sunny 56 13.3 41 5 57 57 W 18 30 29.62 1003 10 16 0.00 0.00
2:52 pm 14:52 Partly Cloudy 57 13.9 36 2.2 45 45 WSW 21 33 29.63 1003 10 16 0.00 0.00
3:52 pm 15:52 Partly Cloudy 56 13.3 35 1.7 46 46 W 16 26 29.65 1004 10 16 0.00 0.00
4:52 pm 16:52 Mostly Cloudy 55 12.8 33 0.6 44 44 W 17 28 29.67 1005 10 16 0.00 0.00
5:52 pm 17:52 Partly Cloudy 55 12.8 30 -1.1 38 38 W 21 33 29.70 1006 10 16 0.00 0.00
6:52 pm 18:52 Mostly Clear 51 10.6 27 -2.8 39 39 W 20 31 29.76 1008 10 16 0.00 0.00
7:52 pm 19:52 Mostly Clear 48 8.9 29 -1.7 48 48 W 10 17 29.80 1009 10 16 0.00 0.00
8:52 pm 20:52 Mostly Clear 47 8.3 28 -2.2 48 48 W 10 17 29.83 1010 10 16 0.00 0.00
9:52 pm 21:52 Clear 47 8.3 27 -2.8 46 46 WSW 8 13 29.85 1011 10 16 0.00 0.00
10:52 pm 22:52 Clear 42 5.6 27 -2.8 55 55 W 10 17 29.89 1012 10 16 0.00 0.00
11:52 pm 23:52 Clear 43 6.1 27 -2.8 53 53 WNW 8 13 29.91 1013 10 16 0.00 0.00

Powered by AerisWeather